Location: Pinhead Observatory
(34.4473°N, 118.1985°W)
Time: 01:57:14
(UTC-07:00)

CZ-4C R/B - Visible Passes

Search period start: 22 April 2018 00:00
Search period end: 02 May 2018 00:00
Orbit: 693 x 1309 km, 63.4° (Epoch: 21 April)

Date Brightness Start Highest point End Pass type
(mag) Time Alt. Az. Time Alt. Az. Time Alt. Az.
22 Apr 4.7 00:14:51 15° NW 00:14:51 15° NW 00:18:02 10° N visible
22 Apr 5.3 05:46:19 10° N 05:51:22 20° NE 05:56:46 10° E visible
22 Apr 3.7 23:00:47 31° N 23:00:47 31° N 23:04:19 10° NNE visible
23 Apr 3.0 21:46:07 34° NE 21:46:07 34° NE 21:49:26 10° NE visible
23 Apr 4.5 23:31:06 16° WNW 23:32:59 19° NW 23:36:59 10° N visible
24 Apr 5.4 05:05:15 10° N 05:09:39 17° NE 05:14:20 10° ENE visible
24 Apr 3.4 20:29:40 16° ESE 20:29:40 16° ESE 20:32:51 10° ENE visible
24 Apr 2.8 22:14:15 22° WSW 22:17:24 51° NW 22:22:58 10° NNE visible
25 Apr 5.0 05:37:36 10° NNW 05:43:58 31° NE 05:50:54 10° ESE visible
25 Apr 2.2 20:57:51 10° S 21:02:34 46° ESE 21:07:51 10° NE visible
25 Apr 4.3 22:47:17 10° W 22:51:21 22° NW 22:55:51 10° N visible
26 Apr 5.6 04:24:18 10° N 04:27:56 14° NE 04:31:43 10° ENE visible
26 Apr 2.4 21:30:57 10° SW 21:35:54 66° WNW 21:41:35 10° NNE visible
26 Apr 5.2 23:24:24 10° NW 23:25:47 11° NW 23:27:11 10° NNW visible
27 Apr 5.2 04:56:22 10° N 05:02:22 27° NE 05:08:50 10° ESE visible
27 Apr 2.5 20:16:45 10° S 20:21:14 35° ESE 20:26:12 10° NE visible
27 Apr 4.1 22:05:22 10° WSW 22:09:44 27° NW 22:14:37 10° N visible
28 Apr 5.8 03:43:38 10° NNE 03:46:10 12° NE 03:48:46 10° NE visible
28 Apr 4.1 05:29:13 10° NNW 05:36:22 50° NE 05:44:11 10° SE visible
28 Apr 2.1 20:49:28 10° SSW 20:54:27 84° WNW 21:00:09 10° NNE visible
28 Apr 5.2 22:41:32 10° WNW 22:44:03 13° NW 22:46:42 10° N visible
29 Apr 5.3 04:15:11 10° N 04:20:43 23° NE 04:26:39 10° E visible
29 Apr 3.8 21:23:32 10° WSW 21:28:09 33° NW 21:33:22 10° NNE visible
30 Apr 4.3 04:47:54 10° NNW 04:54:50 42° NE 05:02:23 10° ESE visible
30 Apr 2.0 20:08:05 10° SSW 20:13:03 76° ESE 20:18:40 10° NE visible
30 Apr 5.1 21:59:08 10° WNW 22:02:20 16° NW 22:05:48 10° N visible
01 May 5.4 03:34:03 10° N 03:39:02 19° NE 03:44:21 10° E visible
01 May 3.2 05:21:06 10° NNW 05:28:35 82° ENE 05:36:46 10° SSE visible
01 May 3.5 20:41:49 10° WSW 20:46:36 42° NW 20:52:02 10° NNE visible
